ITY621 EGKK-LIPE

Flight info

Callsign ITY621
Flight time N/A
Altitude 23000
Route ODVIK Y311 DVR L9 KONAN/N0478F390 UL607 REMBA M624 DIK M150 PITES DCT KRH DCT BATUB DCT TIRUL M738 NATAG DCT LORLO DCT UNTAD/N0425F190 M738 BENUS
Aircraft A359/H-SDE1E2E3FGHIJ2J3J4J5M1RWXY/LB1D1

Departure

Time 2026-04-17 08:20
Airport London Gatwick Airport (EGKK)

Arrival

Time N/A
Airport Bologna Guglielmo Marconi Airport (LIPE)
Time Latitude Longitude Altitude Speed Heading
2026-04-17 07:35 51.15853 -0.17409 210 ft 0 kts 348°
2026-04-17 08:07 51.15842 -0.17405 210 ft 3 kts 349°
2026-04-17 08:07 51.15818 -0.17398 210 ft 3 kts 348°
2026-04-17 08:07 51.15794 -0.17390 210 ft 3 kts 348°
2026-04-17 08:08 51.15778 -0.17382 210 ft 3 kts 295°
2026-04-17 08:08 51.15780 -0.17350 210 ft 3 kts 257°
2026-04-17 08:08 51.15781 -0.17342 210 ft 0 kts 258°
2026-04-17 08:12 51.15781 -0.17343 210 ft 1 kts 258°
2026-04-17 08:12 51.15774 -0.17396 210 ft 8 kts 258°
2026-04-17 08:13 51.15759 -0.17472 210 ft 7 kts 233°
2026-04-17 08:13 51.15715 -0.17492 210 ft 7 kts 172°
2026-04-17 08:13 51.15662 -0.17477 210 ft 10 kts 169°
2026-04-17 08:14 51.15532 -0.17431 210 ft 9 kts 167°
2026-04-17 08:14 51.15472 -0.17411 210 ft 9 kts 168°
2026-04-17 08:14 51.15415 -0.17392 210 ft 8 kts 167°
2026-04-17 08:14 51.15362 -0.17373 210 ft 8 kts 167°
2026-04-17 08:15 51.15314 -0.17346 210 ft 7 kts 147°
2026-04-17 08:15 51.15267 -0.17331 210 ft 7 kts 160°
2026-04-17 08:15 51.15243 -0.17277 210 ft 6 kts 92°
2026-04-17 08:15 51.15250 -0.17193 210 ft 12 kts 79°
2026-04-17 08:16 51.15269 -0.17050 210 ft 13 kts 77°
2026-04-17 08:16 51.15288 -0.16912 210 ft 12 kts 78°
2026-04-17 08:16 51.15306 -0.16782 210 ft 11 kts 76°
2026-04-17 08:16 51.15303 -0.16689 210 ft 8 kts 127°
2026-04-17 08:17 51.15281 -0.16665 210 ft 0 kts 158°
2026-04-17 08:18 51.15249 -0.16651 210 ft 10 kts 166°
2026-04-17 08:18 51.15186 -0.16629 210 ft 8 kts 171°
2026-04-17 08:18 51.15144 -0.16659 210 ft 5 kts 232°
2026-04-17 08:19 51.15137 -0.16687 210 ft 0 kts 258°
2026-04-17 08:19 51.15133 -0.16715 210 ft 15 kts 257°
2026-04-17 08:19 51.15058 -0.17260 210 ft 86 kts 257°
2026-04-17 08:19 51.14884 -0.18534 212 ft 148 kts 257°
2026-04-17 08:20 51.14644 -0.20291 675 ft 165 kts 257°
2026-04-17 08:20 51.14374 -0.22122 1415 ft 178 kts 256°
2026-04-17 08:20 51.14107 -0.24090 2197 ft 184 kts 257°
2026-04-17 08:20 51.13857 -0.26156 2689 ft 197 kts 256°
2026-04-17 08:21 51.13714 -0.28399 3079 ft 213 kts 271°
2026-04-17 08:21 51.14305 -0.30661 3565 ft 233 kts 302°
2026-04-17 08:21 51.15612 -0.32211 3974 ft 239 kts 331°
2026-04-17 08:21 51.17247 -0.32580 4006 ft 246 kts
2026-04-17 08:22 51.18785 -0.31675 3996 ft 250 kts 30°
2026-04-17 08:22 51.19944 -0.29628 3998 ft 252 kts 61°
2026-04-17 08:22 51.20387 -0.26946 4009 ft 250 kts 87°
2026-04-17 08:22 51.20375 -0.24179 4005 ft 248 kts 95°
2026-04-17 08:23 51.20429 -0.21434 4006 ft 248 kts 87°
2026-04-17 08:23 51.20632 -0.18688 4005 ft 257 kts 89°
2026-04-17 08:23 51.20859 -0.15728 4011 ft 275 kts 85°
2026-04-17 08:23 51.21175 -0.12683 4379 ft 288 kts 83°
2026-04-17 08:24 51.21627 -0.09475 4832 ft 303 kts 79°
2026-04-17 08:24 51.22151 -0.06119 5244 ft 320 kts 79°
2026-04-17 08:24 51.22682 -0.02542 5629 ft 338 kts 80°
2026-04-17 08:24 51.23190 0.01177 6134 ft 351 kts 81°
2026-04-17 08:25 51.23684 0.05075 6681 ft 364 kts 81°
2026-04-17 08:25 51.24186 0.09084 7430 ft 371 kts 81°
2026-04-17 08:25 51.24694 0.13143 8247 ft 374 kts 82°
2026-04-17 08:25 51.25016 0.17292 9000 ft 379 kts 86°
2026-04-17 08:26 51.25189 0.21516 9765 ft 383 kts 91°
2026-04-17 08:26 51.25133 0.25771 10592 ft 385 kts 96°
2026-04-17 08:26 51.24871 0.30042 11468 ft 387 kts 100°
2026-04-17 08:26 51.24493 0.34259 12407 ft 390 kts 102°
2026-04-17 08:27 51.24101 0.38648 13308 ft 398 kts 101°
2026-04-17 08:27 51.23753 0.43022 14166 ft 405 kts 100°
2026-04-17 08:27 51.23409 0.47524 15024 ft 412 kts 100°
2026-04-17 08:27 51.23062 0.52090 15895 ft 417 kts 100°
2026-04-17 08:28 51.22698 0.56725 16687 ft 424 kts 100°
2026-04-17 08:28 51.22325 0.61431 17423 ft 431 kts 100°
2026-04-17 08:28 51.21943 0.66209 18166 ft 437 kts 100°
2026-04-17 08:28 51.21554 0.71049 18919 ft 442 kts 100°
2026-04-17 08:29 51.21157 0.75965 19645 ft 447 kts 100°
2026-04-17 08:29 51.20758 0.80897 20332 ft 453 kts 100°
2026-04-17 08:29 51.20356 0.85906 21023 ft 458 kts 99°
2026-04-17 08:29 51.20001 0.90990 21718 ft 464 kts 99°
2026-04-17 08:30 51.19625 0.96237 22367 ft 469 kts 99°
2026-04-17 08:30 51.19229 1.01253 22958 ft 474 kts 100°
2026-04-17 08:30 51.18791 1.06483 23539 ft 479 kts 100°
2026-04-17 08:30 51.18343 1.11787 24091 ft 484 kts 100°
2026-04-17 08:31 51.17891 1.17121 24693 ft 488 kts 100°
2026-04-17 08:31 51.17435 1.22502 25225 ft 492 kts 100°
2026-04-17 08:31 51.16974 1.27942 25771 ft 496 kts 100°
2026-04-17 08:31 51.16513 1.33388 26258 ft 500 kts 100°
2026-04-17 08:32 51.16069 1.38940 26745 ft 504 kts 98°
2026-04-17 08:32 51.15753 1.44502 27191 ft 508 kts 96°
2026-04-17 08:32 51.15520 1.50144 27680 ft 512 kts 95°
2026-04-17 08:32 51.15344 1.55829 28096 ft 515 kts 95°
2026-04-17 08:33 51.15129 1.61477 28533 ft 518 kts 95°
2026-04-17 08:33 51.14853 1.67208 28886 ft 521 kts 96°
2026-04-17 08:33 51.14539 1.73016 29279 ft 524 kts 96°
2026-04-17 08:33 51.14229 1.78760 29632 ft 526 kts 96°
2026-04-17 08:34 51.13918 1.84590 29935 ft 529 kts 96°
2026-04-17 08:34 51.13606 1.90462 30264 ft 531 kts 96°
2026-04-17 08:34 51.13295 1.96318 30610 ft 532 kts 96°
2026-04-17 08:34 51.12984 2.02171 31088 ft 530 kts 96°
2026-04-17 08:35 51.12669 2.08011 31509 ft 529 kts 96°
2026-04-17 08:35 51.12562 2.09985 31632 ft 529 kts 96°